When you browse on this site, cookies collect data to enhance your experience and personalize the content and advertising you see.
Visit our Privacy Policy to learn more. By continuing to use the site, you agree to this use of cookies and data.
  • în România
  • Lista ţărilor
  • Pe 7 zile
  • Temperatura apei
  • Hartă satelitară
  • Meteo pe hartă
  • Widget-uri
  • user-avatar
    Intrare

    Meteo pe oră la Stirling

    Astăzi, 20 Ianuarie, Duminică

    Timp Temperatura Precipitaţii Vânt Presiune Umiditate
    00:00 +2°C° 0 mm 0 m/s 758 mmHg 90%
    01:00 +2°C° 0 mm 0 m/s 758 mmHg 90%
    02:00 +2°C° 0 mm 0 m/s 758 mmHg 90%
    03:00 +2°C° 0 mm 0 m/s 758 mmHg 90%
    04:00 +1°C° 0 mm 0 m/s 759 mmHg 91%
    05:00 +2°C° 0 mm 1 m/s 759 mmHg 91%
    06:00 +2°C° 0 mm 1 m/s 759 mmHg 92%
    07:00 +2°C° 0.1 mm 1 m/s 759 mmHg 92%
    08:00 +1°C° 0.1 mm 2 m/s 760 mmHg 92%
    09:00 +1°C° 0.1 mm 2 m/s 760 mmHg 92%
    10:00 +2°C° 0.1 mm 2 m/s 761 mmHg 90%
    11:00 +2°C° 0.1 mm 3 m/s 762 mmHg 88%
    12:00 +3°C° 0.1 mm 3 m/s 762 mmHg 86%
    13:00 +3°C° 0 mm 3 m/s 763 mmHg 82%
    14:00 +3°C° 0 mm 3 m/s 763 mmHg 79%
    15:00 +3°C° 0 mm 3 m/s 764 mmHg 76%
    16:00 +3°C° 0 mm 2 m/s 765 mmHg 79%
    17:00 +2°C° 0 mm 2 m/s 765 mmHg 82%
    18:00 +1°C° 0 mm 2 m/s 766 mmHg 85%
    19:00 +1°C° 0 mm 2 m/s 766 mmHg 85%
    20:00 +1°C° 0 mm 2 m/s 767 mmHg 84%
    21:00 +1°C° 0 mm 1 m/s 767 mmHg 84%
    22:00 +1°C° 0 mm 1 m/s 768 mmHg 83%
    23:00 +1°C° 0 mm 1 m/s 768 mmHg 82%

    Mâine, 21 Ianuarie, Luni

    Timp Temperatura Precipitaţii Vânt Presiune Umiditate
    00:00 +1°C° 0 mm 1 m/s 768 mmHg 81%
    01:00 +1°C° 0 mm 1 m/s 767 mmHg 83%
    02:00 -1°C° 0 mm 2 m/s 767 mmHg 84%
    03:00 -1°C° 0 mm 2 m/s 767 mmHg 85%
    04:00 -1°C° 0 mm 2 m/s 766 mmHg 87%
    05:00 -1°C° 0 mm 2 m/s 765 mmHg 89%
    06:00 -1°C° 0 mm 2 m/s 765 mmHg 91%
    07:00 +1°C° 0 mm 2 m/s 764 mmHg 90%
    08:00 0°C° 0 mm 3 m/s 763 mmHg 90%
    09:00 +1°C° 0 mm 3 m/s 763 mmHg 90%
    10:00 0°C° 0 mm 4 m/s 762 mmHg 84%
    11:00 +1°C° 0 mm 5 m/s 761 mmHg 79%
    12:00 +2°C° 0 mm 6 m/s 760 mmHg 74%
    13:00 +2°C° 0 mm 6 m/s 758 mmHg 73%
    14:00 +2°C° 0 mm 6 m/s 756 mmHg 73%
    15:00 +2°C° 0 mm 6 m/s 754 mmHg 72%
    16:00 +2°C° 0.6 mm 6 m/s 753 mmHg 76%
    17:00 +2°C° 0.6 mm 6 m/s 751 mmHg 80%
    18:00 +2°C° 0.6 mm 6 m/s 750 mmHg 84%
    19:00 +1°C° 0.8 mm 5 m/s 749 mmHg 85%
    20:00 +1°C° 0.8 mm 5 m/s 748 mmHg 85%
    21:00 +1°C° 0.8 mm 4 m/s 747 mmHg 86%
    22:00 0°C° 0 mm 4 m/s 747 mmHg 86%
    23:00 0°C° 0 mm 4 m/s 746 mmHg 86%

    Poimâine, 22 Ianuarie, Marţi

    Timp Temperatura Precipitaţii Vânt Presiune Umiditate
    00:00 0°C° 0 mm 3 m/s 746 mmHg 86%
    01:00 0°C° 0 mm 3 m/s 745 mmHg 85%
    02:00 0°C° 0 mm 3 m/s 745 mmHg 85%
    03:00 0°C° 0 mm 3 m/s 745 mmHg 84%
    04:00 0°C° 0 mm 3 m/s 745 mmHg 84%
    05:00 0°C° 0 mm 3 m/s 745 mmHg 84%
    06:00 -1°C° 0 mm 3 m/s 745 mmHg 84%
    07:00 -1°C° 0 mm 3 m/s 745 mmHg 84%
    08:00 -1°C° 0 mm 3 m/s 746 mmHg 84%
    09:00 -1°C° 0 mm 3 m/s 746 mmHg 83%
    10:00 -1°C° 0 mm 4 m/s 746 mmHg 80%
    11:00 0°C° 0 mm 4 m/s 747 mmHg 77%
    12:00 +1°C° 0 mm 5 m/s 747 mmHg 74%
    13:00 0°C° 0 mm 4 m/s 748 mmHg 75%
    14:00 0°C° 0 mm 4 m/s 748 mmHg 76%
    15:00 +1°C° 0 mm 3 m/s 748 mmHg 77%
    16:00 0°C° 0 mm 3 m/s 748 mmHg 79%
    17:00 -1°C° 0 mm 3 m/s 749 mmHg 81%
    18:00 -2°C° 0 mm 3 m/s 749 mmHg 83%
    19:00 -2°C° 0 mm 2 m/s 749 mmHg 82%
    20:00 -2°C° 0 mm 2 m/s 750 mmHg 82%
    21:00 -2°C° 0 mm 2 m/s 750 mmHg 82%
    22:00 -2°C° 0 mm 2 m/s 750 mmHg 82%
    23:00 -2°C° 0 mm 2 m/s 750 mmHg 82%

    23 Ianuarie, Miercuri

    Timp Temperatura Precipitaţii Vânt Presiune Umiditate
    00:00 -2°C° 0 mm 2 m/s 751 mmHg 83%
    01:00 -2°C° 0 mm 2 m/s 751 mmHg 82%
    02:00 -2°C° 0 mm 2 m/s 751 mmHg 82%
    03:00 -2°C° 0 mm 2 m/s 751 mmHg 82%
    04:00 -2°C° 0 mm 2 m/s 751 mmHg 82%
    05:00 -2°C° 0 mm 2 m/s 752 mmHg 82%
    06:00 -2°C° 0 mm 2 m/s 752 mmHg 83%
    07:00 -2°C° 0 mm 2 m/s 752 mmHg 83%
    08:00 -2°C° 0 mm 2 m/s 753 mmHg 84%
    09:00 -2°C° 0 mm 2 m/s 753 mmHg 85%
    10:00 +1°C° 0 mm 2 m/s 753 mmHg 82%
    11:00 +1°C° 0 mm 3 m/s 753 mmHg 79%
    12:00 +2°C° 0 mm 3 m/s 754 mmHg 76%
    13:00 +2°C° 0 mm 3 m/s 754 mmHg 78%
    14:00 +3°C° 0 mm 2 m/s 754 mmHg 80%
    15:00 +3°C° 0 mm 2 m/s 754 mmHg 82%
    16:00 +2°C° 0 mm 2 m/s 754 mmHg 84%
    17:00 +1°C° 0 mm 2 m/s 755 mmHg 86%
    18:00 +1°C° 0 mm 2 m/s 755 mmHg 88%
    19:00 +1°C° 0 mm 2 m/s 755 mmHg 88%
    20:00 +1°C° 0 mm 2 m/s 755 mmHg 88%
    21:00 +1°C° 0 mm 2 m/s 756 mmHg 88%
    22:00 +1°C° 0 mm 2 m/s 756 mmHg 89%
    23:00 +1°C° 0 mm 2 m/s 756 mmHg 90%

    24 Ianuarie, Joi

    Timp Temperatura Precipitaţii Vânt Presiune Umiditate
    00:00 +1°C° 0 mm 2 m/s 756 mmHg 91%
    01:00 +1°C° 0 mm 2 m/s 756 mmHg 92%
    02:00 +1°C° 0 mm 2 m/s 756 mmHg 93%
    03:00 +2°C° 0 mm 1 m/s 756 mmHg 94%
    04:00 +2°C° 0 mm 1 m/s 756 mmHg 94%
    05:00 +2°C° 0 mm 1 m/s 756 mmHg 94%
    06:00 +2°C° 0 mm 1 m/s 756 mmHg 94%
    07:00 +2°C° 0 mm 1 m/s 757 mmHg 93%
    08:00 +3°C° 0 mm 1 m/s 757 mmHg 92%
    09:00 +3°C° 0 mm 1 m/s 757 mmHg 92%
    10:00 +3°C° 0 mm 1 m/s 757 mmHg 90%
    11:00 +4°C° 0 mm 1 m/s 758 mmHg 89%
    12:00 +5°C° 0 mm 1 m/s 758 mmHg 87%
    13:00 +5°C° 0 mm 1 m/s 758 mmHg 88%
    14:00 +5°C° 0 mm 1 m/s 758 mmHg 90%
    15:00 +5°C° 0 mm 1 m/s 758 mmHg 91%
    16:00 +4°C° 0 mm 1 m/s 758 mmHg 91%
    17:00 +4°C° 0 mm 1 m/s 758 mmHg 92%
    18:00 +3°C° 0 mm 1 m/s 759 mmHg 93%
    19:00 +3°C° 0 mm 1 m/s 759 mmHg 93%
    20:00 +4°C° 0 mm 1 m/s 759 mmHg 94%
    21:00 +4°C° 0 mm 1 m/s 760 mmHg 94%
    22:00 +3°C° 0 mm 2 m/s 760 mmHg 95%
    23:00 +3°C° 0 mm 2 m/s 760 mmHg 96%

    25 Ianuarie, Vineri

    Timp Temperatura Precipitaţii Vânt Presiune Umiditate
    00:00 +4°C° 0 mm 2 m/s 760 mmHg 97%
    01:00 +4°C° 0 mm 2 m/s 760 mmHg 97%
    02:00 +3°C° 0 mm 3 m/s 759 mmHg 98%
    03:00 +4°C° 0 mm 3 m/s 759 mmHg 98%
    04:00 +4°C° 0 mm 3 m/s 759 mmHg 98%
    05:00 +4°C° 0 mm 3 m/s 759 mmHg 97%
    06:00 +5°C° 0 mm 3 m/s 759 mmHg 97%
    07:00 +5°C° 0 mm 3 m/s 759 mmHg 97%
    08:00 +4°C° 0 mm 3 m/s 759 mmHg 97%
    09:00 +4°C° 0 mm 3 m/s 759 mmHg 97%
    10:00 +5°C° 0 mm 4 m/s 759 mmHg 95%
    11:00 +6°C° 0 mm 4 m/s 759 mmHg 93%
    12:00 +7°C° 0 mm 5 m/s 759 mmHg 90%
    13:00 +7°C° 0 mm 5 m/s 758 mmHg 91%
    14:00 +6°C° 0 mm 5 m/s 758 mmHg 91%
    15:00 +5°C° 0 mm 6 m/s 757 mmHg 91%
    16:00 +7°C° 0.2 mm 6 m/s 757 mmHg 91%
    17:00 +6°C° 0.2 mm 7 m/s 757 mmHg 91%
    18:00 +6°C° 0.2 mm 7 m/s 756 mmHg 91%
    19:00 +7°C° 0 mm 6 m/s 757 mmHg 90%
    20:00 +5°C° 0 mm 6 m/s 757 mmHg 89%
    21:00 +5°C° 0 mm 5 m/s 757 mmHg 88%
    22:00 +3°C° 0 mm 5 m/s 757 mmHg 88%
    23:00 +4°C° 0 mm 4 m/s 757 mmHg 88%
    Arată mai mult